This is the latest recevied weather packets stored in our database for station/object K7PMV-13. If no packets are shown the sender has not sent any weather packets the latest 1 day(s).
| Time | Temp. | Humidity | Pressure | Rain* | Wind** | Luminosity | Snow |
|---|---|---|---|---|---|---|---|
| 1778101421 | 27.22° C | 24% | 1011.1 hPa | 0 mm | - | 872 W/m² | - |
| 1778100767 | 27.78° C | 25% | 1011.2 hPa | 0 mm | - | 889 W/m² | - |
| 1778099804 | 27.78° C | 25% | 1011.3 hPa | 0 mm | - | 914 W/m² | - |
| 1778099162 | 27.78° C | 25% | 1011.6 hPa | 0 mm | - | 923 W/m² | - |
| 1778098163 | 26.67° C | 26% | 1011.6 hPa | 0 mm | - | 939 W/m² | - |
| 1778096895 | 27.22° C | 25% | 1011.8 hPa | 0 mm | - | 951 W/m² | - |
| 1778095946 | 26.67° C | 25% | 1012 hPa | 0 mm | - | 963 W/m² | - |
| 1778093330 | 26.11° C | 27% | 1012.7 hPa | 0 mm | - | 951 W/m² | - |
| 1778092996 | 25.56° C | 28% | 1012.8 hPa | 0 mm | - | 947 W/m² | - |
| 1778092677 | 25° C | 27% | 1012.9 hPa | 0 mm | - | 947 W/m² | - |
| 1778092040 | 25.56° C | 26% | 1013 hPa | 0 mm | - | 926 W/m² | - |
| 1778091725 | 25° C | 28% | 1013.1 hPa | 0 mm | - | 886 W/m² | - |
| 1778091403 | 25° C | 27% | 1013.1 hPa | 0 mm | - | 830 W/m² | - |
| 1778091088 | 25° C | 29% | 1013.1 hPa | 0 mm | - | 766 W/m² | - |
| 1778090771 | 25° C | 29% | 1013.1 hPa | 0 mm | - | 731 W/m² | - |
| 1778090139 | 23.89° C | 30% | 1013.1 hPa | 0 mm | - | 642 W/m² | - |
| 1778089162 | 23.89° C | 32% | 1013.3 hPa | 0 mm | - | 860 W/m² | - |
| 1778088848 | 24.44° C | 32% | 1013.3 hPa | 0 mm | - | 861 W/m² | - |
| 1778087901 | 23.33° C | 32% | 1013.3 hPa | 0 mm | - | 830 W/m² | - |
| 1778087586 | 22.78° C | 33% | 1013.2 hPa | 0 mm | - | 821 W/m² | - |
| 1778087264 | 22.78° C | 33% | 1013.2 hPa | 0 mm | - | 807 W/m² | - |
| 1778086308 | 22.78° C | 34% | 1013.3 hPa | 0 mm | - | 775 W/m² | - |
| 1778084370 | 21.67° C | 36% | 1013.1 hPa | 0 mm | - | 691 W/m² | - |
| 1778083419 | 21.11° C | 37% | 1013.3 hPa | 0 mm | - | 645 W/m² | - |
| 1778082783 | 20.56° C | 37% | 1013.3 hPa | 0 mm | - | 613 W/m² | - |
* Rain latest hour (hover to see other rain measurements)
** Current wind speed in m/s (hover to see current wind gust speed)